Home   Weather   San Antonio   Past weeks

Flag for USA Past Weather in San Antonio, Texas, USA — Yesterday and Last 2 Weeks

74 °F


Feels Like: 77 °F
Forecast: 55 / 74 °F
Wind: 9 mph from East

Location: San Antonio International Airport

Current Time: Oct 21, 2016 at 6:57:36 PM

Latest Report: Oct 21, 2016 at 5:51 PM

Visibility: 10 mi

Pressure: 30.12 "Hg

Humidity: 32%

Dew Point: 42 °F

Location of San AntonioLocation

Past Weather in San Antonio — Graph


San Antonio Temperature Yesterday

Maximum temperature yesterday: 81 °F (at 10:51 AM)
Minimum temperature yesterday: 66 °F (at 11:51 PM)
Average temperature yesterday: 74 °F

High & Low Weather Summary for the Past Weeks

High90 °F (Oct 17, 3:51 PM)94% (Oct 7, 6:51 AM)30.26 "Hg (Oct 7, 6:51 AM)
Low52 °F (Oct 10, 6:51 AM)26% (Oct 9, 4:51 PM)29.73 "Hg (Oct 17, 5:51 PM)
Average75 °F67%30.01 "Hg
* Reported Oct 6 4:51 PM — Oct 21 4:51 PM, San Antonio, Weather by CustomWeather, © 2016

Note: Actual official high and low records may vary slightly from our data, if they occured in-between our weather recording intervals... More about our weather records


San Antonio Weather History for the Previous 24 Hours

Scroll right to see more
Time TempWeatherWind HumidityBarometerVisibility
4:51 PM
Fri, Oct 21
76 °FSunny.No wind27%30.13 "Hg10 mi
3:51 PM77 °FSunny.6 mph30%30.14 "Hg10 mi
2:51 PM75 °FSunny.10 mph31%30.16 "Hg10 mi
1:51 PM73 °FSunny.3 mph36%30.19 "Hg10 mi
12:51 PM71 °FSunny.6 mph38%30.23 "Hg10 mi
11:51 AM70 °FSunny.8 mph39%30.25 "Hg10 mi
10:51 AM68 °FSunny.15 mph40%30.26 "Hg10 mi
9:51 AM64 °FPassing clouds.13 mph50%30.26 "Hg10 mi
8:51 AM60 °FPassing clouds.9 mph58%30.25 "Hg10 mi
7:51 AM56 °FPassing clouds.8 mph65%30.23 "Hg10 mi
6:51 AM58 °FClear.10 mph60%30.22 "Hg10 mi
5:51 AM59 °FClear.8 mph58%30.22 "Hg10 mi
4:51 AM61 °FClear.13 mph54%30.20 "Hg10 mi
3:51 AM61 °FClear.10 mph54%30.20 "Hg10 mi
2:51 AM62 °FClear.12 mph54%30.21 "Hg10 mi
1:51 AM64 °FClear.9 mph50%30.22 "Hg10 mi
12:51 AM63 °FClear.7 mph54%30.20 "Hg10 mi
11:51 PM
Thu, Oct 20
66 °FPassing clouds.9 mph47%30.19 "Hg10 mi
10:51 PM68 °FPassing clouds.9 mph42%30.16 "Hg10 mi
9:51 PM70 °FPassing clouds.10 mph39%30.15 "Hg10 mi
8:51 PM70 °FPassing clouds.9 mph41%30.13 "Hg10 mi
7:51 PM72 °FPassing clouds.8 mph37%30.12 "Hg10 mi
Weather by CustomWeather, © 2016

See weather overviewHow to use our weather pages